STARLINK-36385, 67717

Orbit data source: Space-Track

STARLINK-36385, 67717 is a payload satellite owned by SpaceX/Seattle (US) in SSO that was launched on Sat, 07 Feb 2026 UTC via an FALCON 9 launch vehicle from the Air Force Western Test Range (AFWTR). Payload-class satellites include a variety of spacecraft equipped with specific instruments for various scientific and technological missions. These include communications satellites like Starlink; space stations such as the ISS; scientific satellites like the Hubble; Earth observation satellites from companies like Planet Labs, Umbra, and HawkEye 360; GPS; miniature CubeSats for education and research; and military/defense satellites.

Loading next visibility...
Identifier
67717, 2026-025AA
Orbit
SSO
Country
Flag of USUS
Related business
Manufacturer
SpaceX/Seattle
Mission
Operational Commercial Communications
Bus & Motor
STARLINK V2MO, Unknown motor
Mass
575 kg wet, ~530 kg dry
Launch date (UTC)
2026-02-07 (4 months ago)
Launch vehicle
FALCON 9
Launch site
Air Force Western Test Range (AFWTR)
Object type
Payload
Rocket body
Debris
Shape & HBR
Box + 2 Pan, 17.7 m
Radar Cross Section
36.964 m², Large (>1 m²)

Expand to show TLE details & history
Last TLE update: 17 hours ago

TLE from 17 hours ago
0 STARLINK-36385
1 67717U 26025AA  26171.19834872  .00019226  00000-0  59598-3 0  9991
2 67717  97.2836 282.4674 0001299  92.6433 267.4958 15.33463438 21729
Epoch: 2026-06-20T04:45Z
TLE epoch observation values (Epoch: 2026-06-20T04:45:37.329Z)
Latitude
-0.00006°
Longitude
-57.35454°
Altitude
468.639 km
Speed
7.632 km/s
True Right ascension
18h 49m 52s
True Declination
0° 00' 00"
Sunlit
Object was in full shadow at epoch
Visualization orbit readout
Latitude
Unknown
Longitude
Unknown
Altitude
Unknown
Speed
Unknown
Apparent Right ascension
Unknown
Apparent Declination
Unknown
Sunlit
N/A
Visualization observer readout
Local Sidereal Time
08:42:02
Azimuth
Unknown
Elevation
Unknown
Doppler factor
Unknown
Orbital elements
Apogee altitude
463.32 km
Perigee altitude
461.542 km
Semi-major axis
6,840.568 km
Eccentricity
0.00013
Inclination
97.2836°
RAAN
282.4674°
Arg. of periapsis
92.6433°
True anomaly
267.48093°
Mean anomaly
267.4958°
Eccentric anomaly
267.48836°
Mean motion
3.83623 °/min
Orbital period
93.84 mins
BSTAR
0.00059598
Loading maneuver chart data...
Computing Atmospheric mass density...
Loading historical data...
Loading historical data...
Loading historical data...
Loading historical data...
Loading historical data...
Loading historical data...
Loading historical data...

Documentation

Showing up to 5 results
|